Showing default

KUIPER-00229, 68578

Orbit data source: Space-Track

KUIPER-00229, 68578 is a payload satellite owned by Kuiper Systems (US) in LEO that was launched on Sat, 04 Apr 2026 UTC via an ATLAS V 551 launch vehicle from the Air Force Eastern Test Range (AFETR). Payload-class satellites include a variety of spacecraft equipped with specific instruments for various scientific and technological missions. These include communications satellites like Starlink; space stations such as the ISS; scientific satellites like the Hubble; Earth observation satellites from companies like Planet Labs, Umbra, and HawkEye 360; GPS; miniature CubeSats for education and research; and military/defense satellites.

Loading next visibility...
Identifier
68578, 2026-072F
Orbit
LEO
Country
Flag of USUS
Related business
Manufacturer
Kuiper Systems
Mission
Operational spacecraft
Bus & Motor
KUIPER, Unknown motor
Mass
~490 kg wet, ~490 kg dry
Launch date (UTC)
2026-04-04 (2 months ago)
Launch vehicle
ATLAS V 551
Launch site
Air Force Eastern Test Range (AFETR)
Object type
Payload
Rocket body
Debris
Shape & HBR
Unknown shape, 3.4 m
Radar Cross Section
Large (>1 m²)

Expand to show TLE details & history
Last TLE update: 22 hours ago

TLE from 22 hours ago
0 KUIPER-00229
1 68578U 26072F   26149.72396636  .00002814  00000-0  43200-3 0  9992
2 68578  51.9013 276.9618 0002106 150.6539 209.4540 14.76369012  8395
Epoch: 2026-05-29T17:22Z
TLE epoch observation values (Epoch: 2026-05-29T17:22:30.693Z)
Latitude
-0.00005°
Longitude
129.08363°
Altitude
642.842 km
Speed
7.537 km/s
True Right ascension
18h 27m 50s
True Declination
0° 00' 00"
Sunlit
Object was in full shadow at epoch
Visualization orbit readout
Latitude
Unknown
Longitude
Unknown
Altitude
Unknown
Speed
Unknown
Apparent Right ascension
Unknown
Apparent Declination
Unknown
Sunlit
N/A
Visualization observer readout
Local Sidereal Time
00:54:46
Azimuth
Unknown
Elevation
Unknown
Doppler factor
Unknown
Orbital elements
Apogee altitude
642.737 km
Perigee altitude
639.781 km
Semi-major axis
7,019.396 km
Eccentricity
0.00021
Inclination
51.9013°
RAAN
276.9618°
Arg. of periapsis
150.6539°
True anomaly
209.44214°
Mean anomaly
209.454°
Eccentric anomaly
209.44807°
Mean motion
3.69057 °/min
Orbital period
97.55 mins
BSTAR
0.000432
Loading maneuver chart data...
Computing Atmospheric mass density...
Loading historical data...
Loading historical data...
Loading historical data...
Loading historical data...
Loading historical data...
Loading historical data...
Loading historical data...

Documentation

Showing up to 5 results
|